Current weather by "City, St" or "zip code"  
 

Current Conditions: Block Island State Airport, RI

Light Rain


62.0 F

Last Updated on Sep 18 2020, 3:56 am EDT
Humidity: 93%
Wind Speed: NE 8.1 mph
Barometer 29.93 in
Dewpoint: 60.1 F
Visibility: 8.00 mi
Precip: 00.11 in
Heat Index: NA
Wind Chill: 61 F
Current conditions at:

Block Island State Airport, RI (KBID)

Lat: 41.16947 Lon: 71.57873

Local Radar Image active severe weather and emergency alerts image image weather storm and storm spotter reports image weather observation monitoring service image
Local
Radar
Active
Alerts
Storm Reports Obs
Monitoring

Sign-up For Email & Text Message Weather Alert Notification Services



Advertise Here

Observation History for Block Island State Airport, RI


Time Wind
(mph)
Vis
(mi)
Weather Precip (in) Temperature (F) Relative
Humidity
Wind
Chill
(F)
Heat
Index
(F)
Pressure
Air Dwpt altimeter
(in)
sea level
(mb)
Rmks
3:56 am EDT NE 8.1 8.00 Light Rain 00.11 62.0 60.1 93% 61 NA 29.93 1013.5
2:56 am EDT N 0.0 7.00 Light Rain 00.07 64.0 61.0 90% NA NA 29.94 1013.6
1:56 am EDT N 0.0 7.00 Mostly Cloudy -- 65.0 64.0 97% NA NA 29.95 1014.0
12:56 am EDT N 0.0 10.00 Mostly Cloudy -- 66.0 64.0 93% NA NA 29.96 1014.6
11:56 pm EDT SW 3.5 10.00 Overcast -- 68.0 64.9 90% NA NA 29.98 1015.1
10:56 pm EDT S 5.8 10.00 Overcast -- 67.0 64.9 93% NA NA 29.99 1015.4
9:56 pm EDT SW 5.8 10.00 Overcast -- 67.0 64.9 93% NA NA 29.99 1015.5
8:56 pm EDT SW 5.8 10.00 Overcast -- 68.0 64.9 90% NA NA 30.00 1015.8
7:56 pm EDT SW 8.1 10.00 Partly Cloudy -- 68.0 64.9 90% NA NA 30.00 1015.8
6:56 pm EDT SW 9.2 10.00 Partly Cloudy -- 68.0 64.0 87% NA NA 29.99 1015.5
5:56 pm EDT SW 10.4 10.00 Overcast -- 69.0 64.0 84% NA NA 29.99 1015.6
4:56 pm EDT SW 6.9 10.00 Mostly Cloudy Trace 69.0 64.9 87% NA NA 30.00 1015.8
3:56 pm EDT S 9.2 10.00 Overcast -- 69.0 64.0 84% NA NA 30.01 1016.2
2:56 pm EDT SW 12.7 10.00 Fair -- 71.0 63.0 76% NA NA 30.02 1016.5
1:56 pm EDT SW 13.8 10.00 Fair -- 71.0 63.0 76% NA NA 30.03 1016.7
12:56 pm EDT SW 11.5 10.00 Fair -- 71.0 62.1 73% NA NA 30.04 1017.2
11:56 am EDT S 8.1 10.00 A Few Clouds -- 70.0 63.0 79% NA NA 30.06 1017.8
10:56 am EDT SW 6.9 10.00 Mostly Cloudy -- 70.0 63.0 79% NA NA 30.07 1018.3
9:56 am EDT W 6.9 10.00 Overcast -- 69.0 63.0 81% NA NA 30.08 1018.6
8:56 am EDT W 9.2 10.00 Overcast -- 69.0 63.0 81% NA NA 30.08 1018.6
7:56 am EDT SW 6.9 10.00 Overcast -- 67.0 62.1 84% NA NA 30.07 1018.3
6:56 am EDT SW 6.9 10.00 Partly Cloudy -- 64.0 60.1 87% NA NA 30.06 1018.1
5:56 am EDT SW 5.8 10.00 Overcast -- 64.0 59.0 84% NA NA 30.07 1018.3
4:56 am EDT W 6.9 10.00 Mostly Cloudy -- 65.0 59.0 81% NA NA 30.07 1018.5

Regional Weather Observation


Montauk, Montauk Airport, NY (KMTP)

NULL
67.0 F

Block Island State Airport, RI (KBID)

Light Rain
62.0 F

N. Kingston / Quonset, RI (KOQU)

Overcast
66.0 F

Groton / New London, Groton / New London Airport, CT (KGON)

Overcast
64.0 F

Newport, Newport State Airport, RI (KUUU)

Mostly Cloudy
62.0 F

Providence, Theodore Francis Green State Airport, RI (KPVD)

Overcast
62.0 F